Regional Weather Roundup
Issued by NWS Sioux Falls, SD

Home | Current Version | Previous Version | Text Only | Print | Product List | Glossary Off
Versions: 1 2 3 4 5 6 7 8 9 10 11 12 13 14 15 16 17 18 19 20 21 22 23 24 25 26 27 28 29 30 31 32 33 34 35 36 37 38 39 40 41 42 43 44 45 46 47 48 49 50

000
ASUS43 KFSD 210110
RWRFSD

WEATHER ROUNDUP FOR SE SOUTH DAKOTA/SW MINNESOTA/NW IOWA
NATIONAL WEATHER SERVICE SIOUX FALLS SD
800 PM CDT WED AUG 20 2014

NOTE: "FAIR" INDICATES FEW OR NO CLOUDS BELOW 12,000 FEET WITH NO
SIGNIFICANT WEATHER AND OR OBSTRUCTIONS TO VISIBILITY.


SDZ038>040-050-052>070-210200-
SOUTHEAST SOUTH DAKOTA

CITY           SKY/WX    TMP DP  RH WIND       PRES   REMARKS
CHAMBERLAIN    CLEAR     79  73  80 SE9       29.68S
HURON          MOCLDY    78  68  71 S13       29.70S
MADISON        FAIR      73  73 100 SE8G16    29.78S
MITCHELL       MOCLDY    79  72  79 SE9       29.71F
SIOUX FALLS    CLOUDY    73  69  87 E8        29.77S
WINNER         FAIR      85  69  58 SE10      29.68S
YANKTON        CLOUDY    79  73  83 SE9       29.73R
$$

MNZ071-072-080-081-089-090-097-098-210200-
SOUTHWEST MINNESOTA

CITY           SKY/WX    TMP DP  RH WIND       PRES   REMARKS
FAIRMONT       CLOUDY    73  64  73 SE10      29.83F
JACKSON        CLOUDY    73  64  73 S12       29.84R
LUVERNE        CLOUDY    72  68  88 E6        29.80S
MARSHALL       CLOUDY    77  68  73 SE12      29.78S
MONTEVIDEO     CLOUDY    75  70  83 S7        29.79S
PIPESTONE      CLOUDY    73  70  88 SE8       29.81S
REDWOOD FALLS  CLOUDY    78  69  73 SE8       29.80R
TRACY          CLOUDY    76  70  83 S7        29.81S
WINDOM         CLOUDY    75  68  78 SE8       29.83R
WORTHINGTON    CLOUDY    72  12  10 E6        29.83S
$$

IAZ001>003-012>014-020>022-031-032-NEZ013-014-SDZ071-210200-
NORTHWEST IOWA

CITY           SKY/WX    TMP DP  RH WIND       PRES   REMARKS
CHEROKEE       CLOUDY    78  74  90 E3        29.80S
DENISON        MOCLDY    81  75  83 S10G20    29.77F
ESTHERVILLE    CLOUDY    70  68  93 SE12      29.82F
LE MARS        CLOUDY    77  75  94 CALM      29.78S
ORANGE CITY    CLOUDY    73  70  88 E5        29.79F
SHELDON        CLOUDY    72  70  94 SE8       29.80R
SIOUX CITY     MOCLDY    81  76  84 SE7       29.75S
SPENCER        CLOUDY    72  68  87 SE9       29.82F
STORM LAKE     CLOUDY    77  77 100 SE7       29.82R
$$

ABBREVIATIONS USED IN REMARKS
   TC - TEMPERATURE IN CELSIUS
  WCI - WIND CHILL INDEX
   HX - HEAT INDEX
  VSB - VISIBILITY




USA.gov is the U.S. government's official web portal to all federal, state and local government web resources and services.